Theta_e
344 345 345 344 343 343 342 340 338 337 337 336 335 334 333 331 330 332 335 341 346 348 351 358 360 360 357 356 355 355 354 350 350 349 348 348 348 348 348 348 348 348 347
344 343 343 343 342 341 341 340 338 335 334 333 332 332 331 331 330 331 333 338 344 348 352 354 358 359 358 356 354 354 354 352 351 349 348 347 347 347 348 348 348 348 348
345 345 342 341 342 341 340 339 338 336 333 331 330 331 330 330 329 330 334 338 340 344 351 352 354 356 358 358 357 354 353 353 352 350 348 347 347 347 347 348 348 348 347
349 346 344 343 343 341 338 337 336 334 332 331 331 330 331 332 332 334 336 339 341 341 345 352 352 354 357 359 358 357 354 351 351 350 349 348 347 347 347 347 348 348 347
349 348 346 345 342 339 337 337 335 334 334 330 329 330 330 331 332 333 335 339 341 342 342 344 349 351 352 356 359 359 357 353 350 350 350 349 349 348 347 347 347 347 347
343 344 345 343 341 338 336 335 334 334 333 333 329 330 331 331 332 332 333 336 341 343 343 345 345 348 349 352 354 357 358 357 352 351 349 348 348 348 348 347 347 346 346
341 339 339 340 340 339 338 337 337 334 332 330 332 332 331 331 330 333 336 336 337 339 344 344 344 344 346 349 349 352 357 358 358 353 349 346 347 348 348 348 347 346 345
338 341 339 338 338 338 337 337 335 334 334 331 330 328 324 328 332 332 333 336 336 339 338 342 344 344 345 347 349 348 353 356 358 357 351 346 346 347 348 348 348 347 346
333 335 334 337 337 337 337 338 337 334 333 332 333 330 322 320 324 331 331 329 330 333 335 340 344 345 345 346 346 347 348 350 355 357 355 349 348 347 348 347 346 346 345
330 331 331 332 333 336 336 337 339 338 335 332 332 333 333 331 322 319 329 330 331 328 328 331 340 342 344 345 346 346 342 344 350 353 353 351 350 350 348 348 347 343 340
327 330 330 330 330 330 332 336 337 337 336 334 333 327 328 326 326 321 317 320 328 328 327 328 333 339 341 342 345 345 340 339 341 344 346 348 349 349 348 347 345 342 341
325 328 328 328 327 327 328 329 332 333 333 333 332 327 326 323 321 321 319 321 322 325 326 327 331 336 339 343 344 340 336 335 334 335 337 340 343 343 344 347 346 344 343
322 322 322 321 321 323 324 327 326 326 326 328 330 329 328 326 328 327 325 322 321 324 327 331 333 335 339 342 343 340 338 332 329 328 329 331 333 336 338 340 342 344 344
321 321 320 319 319 320 320 321 325 326 326 325 324 326 328 330 330 329 326 324 320 320 324 325 330 333 339 340 341 336 342 330 327 325 324 325 327 329 330 331 332 335 338
322 320 319 317 318 318 318 318 318 320 324 326 328 326 326 329 329 329 327 324 321 316 318 323 325 332 334 339 338 339 340 332 328 324 323 323 323 324 325 326 327 329 330
321 320 318 317 316 317 316 316 315 316 317 318 322 324 325 327 328 329 328 327 325 321 317 325 327 332 333 333 335 337 337 329 326 325 322 321 321 321 322 322 323 324 325
319 319 318 317 315 315 315 314 314 315 315 316 318 319 320 322 322 323 325 325 324 324 319 323 329 331 330 328 332 333 332 333 333 322 322 321 319 319 319 319 320 321 322
317 318 318 317 315 315 315 313 313 315 315 314 315 316 317 321 322 325 324 323 324 327 324 320 326 326 326 326 328 330 331 333 333 326 322 321 319 318 317 316 316 316 316
314 315 316 316 315 315 315 314 313 314 314 314 315 315 316 319 319 322 323 322 324 325 325 323 323 326 327 328 326 329 326 328 331 328 322 320 319 318 318 316 315 313 312
310 312 313 315 315 315 314 314 313 313 314 314 315 315 315 315 316 318 321 322 322 320 320 321 319 321 324 326 326 325 320 325 326 328 327 323 320 318 316 315 315 317 313
308 309 309 310 311 312 313 313 314 314 313 313 315 315 316 316 315 315 317 320 320 319 319 318 316 317 319 319 320 322 322 322 322 324 324 328 331 330 328 318 321 320 315
305 306 307 307 308 309 306 306 311 312 313 313 312 313 314 314 314 311 312 314 318 319 315 315 316 315 317 321 318 318 319 315 314 320 324 325 325 324 324 327 316 312 313
303 303 304 305 305 307 303 303 305 311 311 312 311 311 311 313 313 315 311 309 310 309 312 318 315 317 319 321 319 317 316 316 316 319 320 316 319 319 323 324 310 309 309
300 301 302 303 304 305 302 300 302 309 309 309 309 310 311 312 314 313 314 314 315 315 315 314 318 320 322 319 320 320 317 315 314 314 318 313 319 321 324 324 307 306 304
296 297 298 299 302 305 300 299 300 305 305 306 308 309 311 312 308 303 311 312 313 315 312 308 309 308 305 305 310 313 310 309 307 311 314 317 319 322 323 322 317 304 303
295 297 297 298 299 302 300 298 300 303 303 303 305 308 305 309 304 301 306 309 309 312 314 314 315 306 306 306 305 317 311 308 309 310 315 319 319 321 319 320 316 312 307
Wind_Speed
4 2 2 2 2 2 3 3 3 3 4 5 5 6 6 7 7 4 4 12 12 13 14 16 15 14 15 16 16 16 16 15 16 15 14 14 13 12 13 13 12 12 11
4 4 4 4 4 4 4 5 5 5 6 4 7 6 6 6 7 7 5 4 10 13 12 15 16 16 16 19 18 17 17 16 18 17 16 17 16 15 15 14 13 13 13
5 4 4 4 5 5 5 4 4 3 4 3 7 4 4 6 8 8 5 5 6 9 10 12 16 16 14 18 16 15 16 17 17 16 17 15 14 14 15 16 15 13 13
7 6 5 6 4 3 4 5 5 5 5 5 5 3 5 5 9 6 5 5 6 5 6 14 15 13 15 17 19 16 16 13 13 13 14 14 15 15 14 16 16 14 13
8 6 6 5 4 5 5 5 5 5 5 5 5 4 5 7 7 5 7 5 7 6 4 9 13 15 18 18 17 17 17 15 15 17 17 18 18 16 15 15 15 14 14
4 5 4 6 4 5 5 5 6 4 5 4 5 5 3 5 4 5 8 5 6 7 7 9 7 8 16 18 18 19 18 16 17 18 18 17 17 16 16 15 16 17 14
4 5 5 5 5 7 8 8 5 8 6 4 1 3 4 6 6 3 3 5 8 6 7 8 6 6 7 17 18 17 18 18 18 19 18 18 17 18 16 15 17 16 14
3 3 3 4 5 5 6 7 8 5 4 6 3 1 3 2 2 4 3 1 5 5 10 12 10 10 9 7 9 14 18 19 20 19 18 18 18 18 18 19 20 19 17
3 3 2 2 3 3 5 6 6 8 7 4 7 5 1 7 3 3 3 5 5 7 7 13 11 9 8 8 8 10 16 18 19 18 16 17 18 19 20 20 19 17 15
3 4 3 2 1 2 5 6 5 7 6 8 3 7 5 2 3 4 1 4 5 10 13 11 10 8 9 9 11 12 12 14 17 17 16 14 16 19 21 21 18 12 12
3 3 3 3 0 1 3 4 6 5 5 6 6 2 4 1 1 3 5 4 2 7 13 14 12 9 9 9 8 10 15 13 14 13 14 11 9 9 12 17 16 16 16
2 2 3 1 1 1 1 2 4 6 6 6 6 4 5 4 4 5 5 5 7 8 10 12 8 8 7 7 11 14 14 13 14 12 10 10 8 9 10 13 15 16 17
3 4 4 3 2 2 3 3 2 4 4 5 7 6 6 8 7 6 7 6 7 7 7 8 9 7 8 6 9 13 14 14 14 12 11 11 10 10 11 10 11 13 17
5 6 6 5 6 4 3 3 2 1 3 4 7 6 7 7 7 8 8 6 6 7 5 12 5 11 7 5 9 12 10 15 14 13 12 12 11 9 9 11 12 13 13
5 7 7 7 6 6 5 3 3 2 3 3 5 6 6 7 7 8 8 8 9 8 8 6 6 7 4 5 8 8 8 7 10 11 13 11 11 10 8 10 9 10 11
8 8 8 8 7 6 6 5 4 4 4 4 4 6 6 7 7 6 6 7 8 11 12 7 5 5 2 1 6 9 7 6 11 13 11 11 10 8 9 10 10 11 12
10 10 10 10 9 8 7 6 6 5 6 5 5 6 8 8 7 7 8 9 9 10 12 11 5 4 5 7 4 4 3 6 5 12 12 11 10 10 10 11 10 11 11
6 9 9 10 10 10 10 9 9 7 7 7 7 6 8 5 9 9 8 11 11 11 10 14 8 6 10 6 3 2 4 5 7 10 10 8 7 9 8 10 11 11 12
9 9 9 11 12 12 11 11 11 10 10 10 9 8 9 8 9 8 10 9 8 8 9 8 8 8 9 5 5 5 2 2 3 9 7 8 8 9 10 9 9 8 10
8 9 11 14 14 13 12 12 12 12 12 11 11 10 9 9 11 11 10 12 10 9 8 8 8 7 6 5 5 5 2 2 2 3 3 2 2 3 7 8 8 9 10
8 9 11 11 13 12 11 14 14 14 13 12 11 11 11 13 18 15 10 11 11 11 10 9 9 9 9 7 8 4 3 3 4 3 2 3 3 2 2 6 6 9 10
11 10 11 12 13 11 15 18 16 12 13 12 11 11 12 17 18 20 20 20 14 13 15 12 10 11 12 10 4 3 4 3 3 3 4 3 2 4 4 5 6 7 9
12 13 14 12 14 14 16 18 19 12 11 11 11 11 11 10 14 14 18 23 24 24 21 15 15 14 12 10 6 5 4 4 4 3 2 3 1 4 4 4 3 6 8
9 10 12 13 13 12 16 17 17 11 9 10 12 12 12 13 14 17 17 20 19 19 19 16 18 16 13 7 6 5 6 4 2 2 3 3 2 2 2 0 6 3 8
10 11 12 15 13 12 12 14 11 8 9 10 10 13 14 14 19 20 20 20 20 20 15 21 19 11 10 10 9 7 6 5 3 3 4 2 3 2 2 2 3 8 4
12 10 12 13 16 14 14 14 14 10 13 11 14 15 18 18 18 18 17 21 23 20 18 13 11 5 6 9 15 6 7 4 3 2 6 5 3 3 2 2 3 4 4
Wind_Direction
198 193 228 244 256 223 237 210 216 226 223 234 237 245 257 261 262 249 242 265 265 256 249 237 229 233 230 232 215 224 227 213 209 215 222 225 217 213 224 220 214 218 221
180 193 199 209 212 202 203 227 230 219 241 227 249 235 255 264 265 262 260 262 260 257 246 240 235 228 228 233 223 218 220 220 215 210 218 224 218 209 222 223 222 217 219
189 203 218 221 224 213 219 225 225 233 250 245 253 230 239 256 264 267 268 261 279 274 244 240 240 237 232 243 235 225 228 222 231 220 221 223 235 232 218 229 219 228 225
195 203 215 227 227 194 203 227 225 234 240 236 255 224 236 242 254 248 259 266 267 267 255 240 241 244 240 236 236 228 228 224 230 236 232 223 225 236 238 236 231 213 230
200 210 223 226 196 208 215 218 237 218 248 241 244 239 244 255 266 269 259 249 248 258 251 257 243 239 239 240 238 229 229 213 212 222 220 224 221 225 231 238 245 232 226
224 215 230 228 193 208 223 219 224 202 231 248 256 273 253 243 247 241 258 251 251 246 236 245 243 249 240 240 237 233 231 221 212 221 222 225 228 225 231 230 231 232 229
198 209 227 242 229 233 242 226 226 229 230 182 122 253 244 229 235 283 309 283 283 263 235 245 237 241 250 233 233 236 234 226 219 220 219 221 219 225 225 230 235 229 225
114 164 215 236 220 234 232 221 206 231 244 176 178 193 271 341 162 167 167 302 290 305 302 281 250 239 241 239 230 228 235 234 228 222 218 217 218 222 222 226 232 227 217
128 107 71 296 278 240 254 256 230 222 237 202 211 164 203 228 152 196 211 232 274 305 296 299 268 255 227 231 231 232 232 233 237 232 227 215 215 222 221 225 231 236 235
95 90 91 82 353 280 268 269 235 228 220 238 202 240 260 171 184 295 327 248 234 256 261 274 278 270 257 257 228 229 226 223 229 232 237 231 216 220 223 226 220 200 199
84 100 113 117 84 303 283 277 281 241 225 242 229 193 250 322 213 176 263 279 235 237 258 255 261 252 253 254 254 232 222 215 222 223 231 233 238 245 255 218 200 186 193
151 144 114 104 160 248 283 288 275 261 258 246 245 216 217 211 204 191 213 242 233 250 243 254 252 250 252 234 244 230 216 213 216 213 209 215 217 236 254 230 212 209 222
189 199 177 199 236 249 258 248 239 256 262 254 255 253 239 245 245 237 226 227 233 258 267 254 256 251 237 220 236 222 223 207 199 202 205 210 215 219 232 241 252 253 234
191 179 190 196 217 234 245 242 228 211 262 256 267 256 257 246 237 231 234 226 237 233 238 247 242 232 222 206 240 223 228 218 201 203 211 218 220 226 239 249 250 249 250
207 192 192 198 214 220 234 238 243 225 217 250 253 245 256 262 243 238 231 219 220 240 258 257 232 205 221 224 226 239 225 211 236 214 211 207 230 226 236 244 243 246 255
212 201 203 204 214 224 226 224 239 232 220 209 220 244 257 258 262 251 249 230 225 238 253 245 243 275 220 296 231 227 226 196 213 219 216 232 223 230 243 240 238 237 230
216 215 211 210 212 216 226 226 231 241 242 242 214 217 242 244 245 243 240 239 239 237 249 260 245 234 241 231 193 216 161 220 210 218 216 208 223 232 231 239 242 247 252
276 243 224 218 218 216 218 217 225 225 229 241 244 209 237 235 243 248 237 236 237 232 230 243 236 233 223 227 226 195 165 220 226 198 203 217 231 259 247 233 229 231 234
235 228 229 235 239 229 220 219 220 223 222 228 236 227 237 229 236 238 245 251 237 232 229 232 237 240 248 233 223 223 154 165 227 252 226 207 207 231 248 251 255 259 261
261 252 236 234 230 231 230 228 223 222 225 228 231 235 236 239 247 247 237 235 229 226 225 233 238 248 247 245 251 247 227 156 247 243 243 216 202 202 234 242 239 256 260
273 260 261 251 245 237 231 227 227 223 222 228 230 231 236 240 243 240 242 231 226 230 239 237 243 257 249 237 226 207 177 114 225 232 230 222 190 201 217 212 250 252 250
272 265 256 252 254 246 239 223 220 223 222 223 229 236 239 245 248 246 234 236 232 232 240 241 245 238 240 228 196 199 109 122 222 194 203 230 194 243 244 246 238 250 241
270 267 268 260 260 257 247 235 226 225 222 223 227 236 245 246 237 245 242 237 242 239 240 246 249 246 237 210 168 162 154 161 183 174 170 263 221 265 264 266 264 230 212
277 276 270 265 262 262 242 235 233 236 235 240 239 241 243 253 250 248 249 247 239 240 236 234 239 247 237 170 184 197 169 137 78 242 178 205 185 248 334 172 35 200 167
274 273 273 274 275 271 250 237 236 243 249 246 254 263 259 255 253 241 240 242 242 241 225 214 225 195 184 173 156 138 159 153 169 228 211 168 174 178 155 114 31 10 160
277 277 279 276 275 278 257 244 246 261 268 269 270 263 244 247 249 253 251 252 241 227 213 187 181 137 174 175 174 188 150 145 126 209 207 175 156 168 174 106 40 50 62